When you browse on this site, cookies collect data to enhance your experience and personalize the content and advertising you see.
Visit our Privacy Policy to learn more. By continuing to use the site, you agree to this use of cookies and data.
EN

Hourly Weather Dhaka

Today, 9 July, Thursday

Time Temperature Precipitation Wind Pressure Humidity
00:00 +30°C° 0 mm 3 mps 751 mmHg 84%
01:00 +30°C° 0.1 mm 3 mps 751 mmHg 85%
02:00 +30°C° 0.1 mm 3 mps 750 mmHg 86%
03:00 +29°C° 0.1 mm 3 mps 750 mmHg 87%
04:00 +29°C° 0.1 mm 3 mps 750 mmHg 88%
05:00 +29°C° 0.1 mm 3 mps 750 mmHg 88%
06:00 +30°C° 0.1 mm 3 mps 749 mmHg 88%
07:00 +31°C° 0.8 mm 3 mps 750 mmHg 82%
08:00 +33°C° 0.8 mm 4 mps 750 mmHg 76%
09:00 +34°C° 0.8 mm 4 mps 750 mmHg 70%
10:00 +34°C° 2.3 mm 5 mps 750 mmHg 70%
11:00 +34°C° 2.3 mm 5 mps 749 mmHg 69%
12:00 +35°C° 2.3 mm 5 mps 749 mmHg 69%
13:00 +34°C° 1.8 mm 5 mps 749 mmHg 71%
14:00 +34°C° 1.8 mm 5 mps 748 mmHg 73%
15:00 +34°C° 1.8 mm 5 mps 748 mmHg 75%
16:00 +33°C° 3 mm 5 mps 748 mmHg 78%
17:00 +32°C° 3 mm 5 mps 747 mmHg 80%
18:00 +30°C° 3 mm 6 mps 747 mmHg 82%
19:00 +30°C° 1 mm 6 mps 748 mmHg 83%
20:00 +30°C° 1 mm 6 mps 748 mmHg 83%
21:00 +30°C° 1 mm 6 mps 749 mmHg 83%
22:00 +30°C° 0.4 mm 6 mps 749 mmHg 83%
23:00 +30°C° 0.4 mm 6 mps 749 mmHg 84%

Tomorrow, 10 July, Friday

Time Temperature Precipitation Wind Pressure Humidity
00:00 +30°C° 0.4 mm 6 mps 749 mmHg 85%
01:00 +30°C° 0.2 mm 6 mps 748 mmHg 85%
02:00 +29°C° 0.2 mm 6 mps 748 mmHg 85%
03:00 +29°C° 0.2 mm 6 mps 748 mmHg 85%
04:00 +29°C° 0.4 mm 6 mps 748 mmHg 85%
05:00 +29°C° 0.4 mm 6 mps 748 mmHg 85%
06:00 +29°C° 0.4 mm 6 mps 748 mmHg 85%
07:00 +32°C° 0.3 mm 6 mps 748 mmHg 81%
08:00 +33°C° 0.3 mm 7 mps 749 mmHg 77%
09:00 +34°C° 0.3 mm 8 mps 749 mmHg 73%
10:00 +34°C° 0.9 mm 7 mps 749 mmHg 71%
11:00 +35°C° 0.9 mm 7 mps 749 mmHg 68%
12:00 +36°C° 0.9 mm 7 mps 749 mmHg 65%
13:00 +35°C° 2.3 mm 7 mps 748 mmHg 68%
14:00 +35°C° 2.3 mm 6 mps 748 mmHg 70%
15:00 +34°C° 2.3 mm 6 mps 747 mmHg 73%
16:00 +34°C° 3.4 mm 5 mps 747 mmHg 76%
17:00 +33°C° 3.4 mm 5 mps 747 mmHg 79%
18:00 +32°C° 3.4 mm 5 mps 747 mmHg 81%
19:00 +32°C° 1.8 mm 5 mps 748 mmHg 82%
20:00 +32°C° 1.8 mm 5 mps 748 mmHg 83%
21:00 +30°C° 1.8 mm 5 mps 748 mmHg 83%
22:00 +30°C° 0.5 mm 5 mps 748 mmHg 85%
23:00 +30°C° 0.5 mm 5 mps 748 mmHg 86%

Day after tomorrow, 11 July, Saturday

Time Temperature Precipitation Wind Pressure Humidity
00:00 +30°C° 0.5 mm 5 mps 748 mmHg 87%
01:00 +30°C° 1.7 mm 6 mps 748 mmHg 86%
02:00 +30°C° 1.7 mm 6 mps 747 mmHg 85%
03:00 +30°C° 1.7 mm 7 mps 747 mmHg 84%
04:00 +30°C° 1.8 mm 7 mps 747 mmHg 84%
05:00 +30°C° 1.8 mm 7 mps 748 mmHg 84%
06:00 +30°C° 1.8 mm 7 mps 748 mmHg 83%
07:00 +30°C° 2.2 mm 7 mps 748 mmHg 83%
08:00 +30°C° 2.2 mm 7 mps 748 mmHg 82%
09:00 +32°C° 2.2 mm 7 mps 749 mmHg 81%
10:00 +32°C° 2.3 mm 6 mps 748 mmHg 79%
11:00 +33°C° 2.3 mm 6 mps 748 mmHg 78%
12:00 +33°C° 2.3 mm 6 mps 748 mmHg 76%
13:00 +33°C° 3.7 mm 6 mps 748 mmHg 78%
14:00 +33°C° 3.7 mm 5 mps 747 mmHg 79%
15:00 +32°C° 3.7 mm 5 mps 747 mmHg 81%
16:00 +32°C° 3.7 mm 4 mps 747 mmHg 83%
17:00 +30°C° 3.7 mm 3 mps 747 mmHg 85%
18:00 +30°C° 3.7 mm 2 mps 747 mmHg 86%
19:00 +30°C° 0.5 mm 3 mps 747 mmHg 86%
20:00 +30°C° 0.5 mm 3 mps 748 mmHg 86%
21:00 +30°C° 0.5 mm 4 mps 748 mmHg 86%
22:00 +30°C° 1.2 mm 4 mps 749 mmHg 86%
23:00 +30°C° 1.2 mm 4 mps 749 mmHg 85%

12 July, Sunday

Time Temperature Precipitation Wind Pressure Humidity
00:00 +30°C° 1.2 mm 4 mps 749 mmHg 85%
01:00 +29°C° 1 mm 3 mps 748 mmHg 85%
02:00 +29°C° 1 mm 3 mps 748 mmHg 86%
03:00 +29°C° 1 mm 3 mps 748 mmHg 86%
04:00 +29°C° 1.1 mm 3 mps 748 mmHg 86%
05:00 +29°C° 1.1 mm 3 mps 748 mmHg 86%
06:00 +29°C° 1.1 mm 4 mps 749 mmHg 85%
07:00 +29°C° 1.5 mm 4 mps 749 mmHg 86%
08:00 +29°C° 1.5 mm 4 mps 749 mmHg 86%
09:00 +29°C° 1.5 mm 4 mps 750 mmHg 86%
10:00 +30°C° 1 mm 4 mps 750 mmHg 86%
11:00 +30°C° 1 mm 5 mps 750 mmHg 85%
12:00 +30°C° 1 mm 5 mps 750 mmHg 85%
13:00 +30°C° 0.3 mm 5 mps 749 mmHg 85%
14:00 +30°C° 0.3 mm 5 mps 749 mmHg 85%
15:00 +30°C° 0.3 mm 5 mps 749 mmHg 85%
16:00 +29°C° 0.4 mm 4 mps 749 mmHg 86%
17:00 +29°C° 0.4 mm 3 mps 749 mmHg 87%
18:00 +29°C° 0.4 mm 3 mps 749 mmHg 88%
19:00 +29°C° 0.1 mm 2 mps 750 mmHg 88%
20:00 +29°C° 0.1 mm 2 mps 750 mmHg 88%
21:00 +29°C° 0.1 mm 2 mps 751 mmHg 88%
22:00 +29°C° 0 mm 2 mps 751 mmHg 88%
23:00 +29°C° 0 mm 2 mps 750 mmHg 88%

13 July, Monday

Time Temperature Precipitation Wind Pressure Humidity
00:00 +28°C° 0 mm 2 mps 750 mmHg 88%
01:00 +29°C° 0.7 mm 2 mps 750 mmHg 88%
02:00 +29°C° 0.7 mm 3 mps 750 mmHg 87%
03:00 +29°C° 0.7 mm 3 mps 750 mmHg 87%
04:00 +29°C° 0.2 mm 2 mps 750 mmHg 88%
05:00 +28°C° 0.2 mm 2 mps 750 mmHg 88%
06:00 +28°C° 0.2 mm 1 mps 750 mmHg 89%
07:00 +29°C° 0.5 mm 1 mps 750 mmHg 87%
08:00 +29°C° 0.5 mm 1 mps 751 mmHg 85%
09:00 +27°C° 0.5 mm 0 mps 751 mmHg 83%
10:00 +30°C° 0.8 mm 1 mps 751 mmHg 80%
11:00 +31°C° 0.8 mm 1 mps 751 mmHg 77%
12:00 +32°C° 0.8 mm 2 mps 751 mmHg 73%
13:00 +32°C° 1.5 mm 2 mps 751 mmHg 74%
14:00 +32°C° 1.5 mm 2 mps 750 mmHg 75%
15:00 +33°C° 1.5 mm 3 mps 750 mmHg 76%
16:00 +31°C° 1.7 mm 3 mps 750 mmHg 78%
17:00 +31°C° 1.7 mm 3 mps 750 mmHg 81%
18:00 +30°C° 1.7 mm 3 mps 750 mmHg 83%
19:00 +30°C° 0.1 mm 3 mps 750 mmHg 85%
20:00 +30°C° 0.1 mm 3 mps 751 mmHg 86%
21:00 +29°C° 0.1 mm 3 mps 751 mmHg 87%
22:00 +29°C° 0.9 mm 4 mps 751 mmHg 87%
23:00 +29°C° 0.9 mm 4 mps 751 mmHg 87%

14 July, Tuesday

Time Temperature Precipitation Wind Pressure Humidity
00:00 +29°C° 0.9 mm 4 mps 751 mmHg 86%
01:00 +29°C° 0.9 mm 4 mps 751 mmHg 86%
02:00 +29°C° 0.9 mm 4 mps 751 mmHg 85%
03:00 +29°C° 0.9 mm 4 mps 751 mmHg 85%
04:00 +29°C° 1.1 mm 4 mps 751 mmHg 85%
05:00 +29°C° 1.1 mm 5 mps 751 mmHg 84%
06:00 +29°C° 1.1 mm 5 mps 752 mmHg 84%
07:00 +30°C° 0.5 mm 5 mps 752 mmHg 80%
08:00 +32°C° 0.5 mm 5 mps 752 mmHg 77%
09:00 +33°C° 0.5 mm 5 mps 753 mmHg 74%
10:00 +33°C° 0.9 mm 5 mps 753 mmHg 72%
11:00 +34°C° 0.9 mm 5 mps 753 mmHg 70%
12:00 +34°C° 0.9 mm 5 mps 752 mmHg 68%
13:00 +34°C° 1.5 mm 5 mps 752 mmHg 70%
14:00 +34°C° 1.5 mm 6 mps 751 mmHg 71%
15:00 +34°C° 1.5 mm 6 mps 751 mmHg 72%
16:00 +33°C° 0.7 mm 6 mps 751 mmHg 75%
17:00 +32°C° 0.7 mm 5 mps 751 mmHg 78%
18:00 +32°C° 0.7 mm 5 mps 751 mmHg 80%
19:00 +30°C° 0.1 mm 5 mps 751 mmHg 82%
20:00 +30°C° 0.1 mm 5 mps 751 mmHg 83%
21:00 +29°C° 0.1 mm 5 mps 752 mmHg 85%
22:00 +29°C° 0 mm 5 mps 752 mmHg 86%
23:00 +29°C° 0 mm 4 mps 752 mmHg 87%
Show more